Location: Lac Lasalle
(46.0398°N, 74.1576°W)
Time: 21:20:06
(UTC-05:00)

SEEDS - Pass Details

Date: 21 December 2019
Orbit: 586 x 603 km, 97.5° (Epoch: 23 January)

Event Time Altitude Azimuth Distance (km) Brightness Sun altitude
Rises 17:57:31 0° 205° (SSW) 2,809 ? -17.1°
Reaches altitude 10° 18:00:14 10° 224° (SW) 1,917 ? -17.5°
Maximum altitude 18:03:08 18° 269° (W) 1,463 ? -18.0°
Drops below altitude 10° 18:06:04 10° 313° (NW) 1,935 ? -18.5°
Sets 18:08:50 0° 332° (NNW) 2,847 ? -19.0°
